Location: Aldenham
(51.6667°N, 0.3500°W)
Time: 00:35:53
(UTC+00:00)

COSMO-SKYMED 1 - Pass Details

Date: 18 November 2025
Orbit: 579 x 581 km, 97.9° (Epoch: 13 December)

Event Time Altitude Azimuth Distance (km) Brightness Sun altitude
Exits shadow 19:02:49 54° 268° (W) 708 3.1 -26.8°
Drops below altitude 10° 19:06:31 10° 211° (SSW) 1,893 5.4 -27.4°
Sets 19:08:40 0° 208° (SSW) 2,787 6.2 -27.7°
